[[{"header":{"parameterUnit":"m.s-1","parameterCategory":1,"la1":30.2992,"la2":30.254,"lo1":-89.0895,"lo2":-89.0443,"dy":0.0025,"dx":0.0025,"nx":19,"ny":19,"refTime":"2026-03-11T09:00:00:Z","depth":0,"parameterNumber":2,"parameterNumberName":"U-component_of_WINDS"},"data":[0,0,0,0.3463,0.3472,0.3925,0.3927,0.4496,0.45,0,0,0,0,0,0,0,0,0,0,0,0.3304,0.3307,0.3462,0.3473,0.3925,0.3927,0.4495,0.45,0,0,0,0,0,0,0,0,0,0,0,0.3303,0.3306,0.3309,0.3474,0.3924,0.3927,0.4494,0.416,0,0,0,0,0,0,0,0,0,0,0.3724,0.3547,0.3305,0.3309,0.3477,0.3924,0.3927,0.4145,0.4181,0.428,0,0.4345,0,0.4431,0.4536,0.4538,0,0,0,0.3496,0.3516,0.366,0.331,0.3481,0.3923,0.3727,0.4165,0.4207,0.4329,0.4354,0.4376,0.444,0.454,0.4542,0.5003,0.5004,0,0,0.3471,0.3375,0.3631,0.3685,0.3594,0.3713,0.3741,0.4191,0.4218,0.4356,0.439,0.4449,0.4543,0.4547,0.5002,0.5004,0,0,0,0.3384,0.3357,0.349,0.3661,0.3742,0.3725,0.3758,0.4199,0.4249,0.4396,0.4456,0.4546,0.4553,0.5001,0.5003,0.496,0,0,0,0.337,0.3306,0.3478,0.3424,0.3733,0.3972,0.3755,0.4218,0.4272,0.4453,0.4546,0.4558,0.5,0.5002,0.4958,0.4958,0,0,0,0.3284,0.3296,0.3351,0.3418,0.3607,0.3967,0.4044,0.4232,0.4308,0.4538,0.4559,0.4999,0.5002,0.4957,0.4956,0.5056,0,0,0,0.3168,0.3308,0.3348,0.3533,0.3602,0.393,0.4042,0.4295,0.4487,0.4549,0.5,0.5003,0.4957,0.4955,0.5054,0.5124,0.5141,0,0,0.3293,0.3319,0.3436,0.3486,0.3779,0.3869,0.4167,0.444,0.4558,0.4853,0.4866,0.4959,0.4956,0.5056,0.5269,0.5282,0,0,0,0.3444,0.3527,0.3626,0.3798,0.4003,0.4187,0.4422,0.4528,0.4781,0.4682,0.5023,0.5024,0.5087,0.5126,0.5138,0.5204,0.5014,0.5014,0.5014,0.3485,0.362,0.3827,0.4019,0.4188,0.4433,0.4589,0.4775,0.4866,0.4946,0.5034,0.5145,0.5186,0.5196,0.5262,0.5079,0.5079,0.5079,0.5079,0.3687,0.3829,0.3947,0.4187,0.4338,0.4551,0.4801,0.486,0.5092,0.5086,0.515,0.5135,0.5205,0.5273,0.5077,0.5078,0.5078,0.5078,0.5078,0.3731,0.3824,0.3941,0.4212,0.4411,0.4609,0.4825,0.4956,0.5084,0.5145,0.5262,0.5263,0.5288,0.519,0.5191,0.5191,0.5192,0.5192,0.5192,0.3732,0.3866,0.4023,0.4258,0.4393,0.4589,0.4847,0.499,0.5185,0.5266,0.5268,0.5361,0.5181,0.5137,0.5199,0.5198,0.5197,0.5196,0.5196,0.3891,0.3877,0.4118,0.4252,0.455,0.4747,0.4912,0.5195,0.5334,0.5441,0.5524,0.5366,0.5408,0.5401,0.5366,0.5484,0.5484,0.5484,0.5484,0.3932,0.3964,0.4246,0.4455,0.4676,0.4853,0.5147,0.5357,0.5575,0.5675,0.5678,0.5642,0.5627,0.568,0.5666,0.5636,0.582,0.582,0.582,0.4043,0.4104,0.4315,0.4513,0.476,0.4975,0.5258,0.5513,0.5759,0.5837,0.576,0.5746,0.5689,0.5661,0.5735,0.5711,0.5658,0,0]},{"header":{"parameterUnit":"m.s-1","parameterCategory":1,"la1":30.2992,"la2":30.254,"lo1":-89.0895,"lo2":-89.0443,"dy":0.0025,"dx":0.0025,"nx":19,"ny":19,"refTime":"2026-03-11T09:00:00:Z","depth":0,"parameterNumber":3,"parameterNumberName":"V-component_of_WINDS"},"data":[0,0,0,-10.839,-10.84,-10.8889,-10.8891,-10.9488,-10.9493,0,0,0,0,0,0,0,0,0,0,0,-10.8233,-10.8236,-10.8389,-10.8401,-10.8889,-10.8891,-10.9487,-10.9493,0,0,0,0,0,0,0,0,0,0,0,-10.8231,-10.8235,-10.824,-10.8403,-10.8888,-10.8891,-10.9486,-10.9126,0,0,0,0,0,0,0,0,0,0,-10.8656,-10.85,-10.8234,-10.824,-10.8406,-10.8888,-10.8892,-10.9109,-10.9149,-10.9256,0,-10.9353,0,-10.9433,-10.9532,-10.9534,0,0,0,-10.8409,-10.8467,-10.8611,-10.8241,-10.841,-10.8887,-10.8671,-10.9131,-10.9176,-10.9308,-10.9362,-10.9385,-10.9443,-10.9536,-10.9538,-11.0145,-11.0148,0,0,-10.8382,-10.8313,-10.858,-10.8639,-10.8567,-10.8655,-10.8686,-10.9159,-10.921,-10.9364,-10.9399,-10.9453,-10.9539,-10.9544,-11.0143,-11.0146,0,0,0,-10.8299,-10.8293,-10.8426,-10.8614,-10.8704,-10.8669,-10.8705,-10.9189,-10.9239,-10.9406,-10.946,-10.9543,-10.955,-11.0141,-11.0144,-11.02,0,0,0,-10.8283,-10.8245,-10.8414,-10.8376,-10.8695,-10.8954,-10.8724,-10.9206,-10.9262,-10.9457,-10.9543,-10.9555,-11.0138,-11.0143,-11.0193,-11.0237,0,0,0,-10.8205,-10.8236,-10.8304,-10.8372,-10.858,-10.8948,-10.9025,-10.922,-10.9294,-10.9534,-10.9557,-11.0136,-11.0142,-11.0187,-11.0227,-11.0377,0,0,0,-10.81,-10.8344,-10.8303,-10.8596,-10.8575,-10.8981,-10.9022,-10.9327,-10.9539,-10.9546,-11.0138,-11.0144,-11.0185,-11.022,-11.0369,-11.0489,-11.0533,0,0,-10.8369,-10.8373,-10.8552,-10.853,-10.8925,-10.8912,-10.9315,-10.9572,-10.9656,-10.9976,-10.9992,-11.0196,-11.0226,-11.0375,-11.0808,-11.0842,0,0,0,-10.8613,-10.874,-10.886,-10.9062,-10.9268,-10.9447,-10.9652,-10.9747,-11.0024,-10.9808,-11.0293,-11.0313,-11.0403,-11.0463,-11.0493,-11.0574,-11.017,-11.0169,-11.0168,-10.8891,-10.899,-10.929,-10.9448,-10.9643,-10.9853,-11.0019,-11.0183,-11.0222,-11.0335,-11.0429,-11.0681,-11.0749,-11.0772,-11.0855,-11.0503,-11.0503,-11.0503,-11.0503,-10.9292,-10.9486,-10.9538,-10.9847,-10.9948,-11.0208,-11.0419,-11.0439,-11.0692,-11.0617,-11.0701,-11.0608,-11.0807,-11.0884,-11.0509,-11.0508,-11.0507,-11.0506,-11.0506,-10.9483,-10.9594,-10.971,-11.0013,-11.0235,-11.0385,-11.0629,-11.0711,-11.079,-11.0874,-11.0982,-11.0981,-11.0989,-11.092,-11.0921,-11.0922,-11.0923,-11.0924,-11.0924,-10.9634,-10.9764,-10.9962,-11.0203,-11.0345,-11.0541,-11.0756,-11.0895,-11.1071,-11.1111,-11.1112,-11.1138,-11.081,-11.0724,-11.0938,-11.0935,-11.0934,-11.0932,-11.0931,-11.0001,-10.9932,-11.0236,-11.0379,-11.0669,-11.0883,-11.0988,-11.1266,-11.1393,-11.151,-11.152,-11.1265,-11.1273,-11.1251,-11.118,-11.15,-11.15,-11.15,-11.15,-11.016,-11.0175,-11.0506,-11.0728,-11.0954,-11.108,-11.1417,-11.1586,-11.1749,-11.1833,-11.1799,-11.1714,-11.1687,-11.1712,-11.1679,-11.1614,-11.2037,-11.2038,-11.2038,-11.039,-11.0431,-11.0704,-11.0868,-11.1102,-11.1299,-11.1618,-11.1867,-11.2037,-11.2062,-11.19,-11.1877,-11.174,-11.1691,-11.1707,-11.1655,-11.1538,0,0]}]]